Regional Weather Roundup
Issued by NWS

Home | Current Version | Previous Version | Text Only | Print | Product List | Glossary Off
Versions: 1 2 3 4 5 6 7 8 9 10 11 12 13 14 15 16 17 18 19 20 21 22 23 24 25 26 27

000
ASUS45 KSLC 282110
RWRUT

UTAH REGIONAL WEATHER ROUNDUP
NATIONAL WEATHER SERVICE SALT LAKE CITY UT
300 PM MDT SUN MAY 28 2017

UTZ001>011-023>025-282200-

NORTHERN UTAH

CITY           SKY/WX    TMP DP  RH WIND       PRES   REMARKS
BRIGHAM CITY   SUNNY     74  28  18 SW8       30.22F
HILL AFB       SUNNY     71  35  26 W6        30.23F
LOGAN          SUNNY     74  35  24 N6        30.22F
OGDEN          SUNNY     73  35  25 MISG      30.21F
SALT LAKE CITY MOSUNNY   77  34  21 VRB5      30.19F
TOOELE VALLEY  SUNNY     72  41  33 N12       30.22F
WENDOVER       SUNNY     74  29  19 SE9       30.21
HEBER CITY     SUNNY     75  25  15 CALM      30.22S
WEST JORDAN    SUNNY     74  49  42 NW13      30.22S

$$

UTZ011>015-024>027-282200-

CENTRAL/NORTHEAST UTAH

CITY           SKY/WX    TMP DP  RH WIND       PRES   REMARKS
PROVO AIRPORT  SUNNY     73  30  20 W7        30.21F
MOAB/CANYONLAN SUNNY     78  21  12 VRB7      30.16F
DELTA          SUNNY     73  27  17 W3        30.20F
PRICE          SUNNY     71  22  15 VRB5      30.24F
ROOSEVELT      SUNNY     73  27  17 E7        30.26F
VERNAL         SUNNY     71  28  20 SW6       30.24F

$$

UTZ013>016-019>022-027-282200-

SOUTHERN UTAH

CITY           SKY/WX    TMP DP  RH WIND       PRES   REMARKS
BRYCE CANYON   MOSUNNY   68  19  15 VRB5      30.32F
CEDAR CITY     SUNNY     77  22  13 VRB5G17   30.19F
MILFORD        SUNNY     78  22  12 N10       30.19F
ST GEORGE      CLEAR     88  25  10 N8        30.03F
HANKSVILLE     SUNNY     79  23  12 NW5       30.20S
BLANDING       CLOUDY    73  20  13 NE6       30.28F

$$

REGIONAL REPORTS     COLORADO/ARIZONA

CITY           SKY/WX    TMP DP  RH WIND       PRES   REMARKS
CRAIG, CO      SUNNY     66  26  22 VRB3      30.29F
GRAND JUNCTION SUNNY     75  20  12 VRB7G16   30.18F
RIFLE, CO      SUNNY     74  15  10 NE8       30.22F
MONTROSE, CO   SUNNY     71  10   9 N7        30.24F
CORTEZ, CO     SUNNY     74  16  11 S9        30.22F
COLORADO CITY    N/A     82  27  13 CALM      30.18S
PAGE, AZ       SUNNY     83  23  11 VRB5      30.14F
GRAND CANYON   PTSUNNY   71  21  15 NE8G18    30.26F
KINGMAN, AZ    SUNNY     91  25   9 NW9G17    30.02F
FLAGSTAFF, AZ  SUNNY     71  17  12 NE7       30.25F

$$

REGIONAL REPORTS    NEVADA/IDAHO/WYOMING

CITY           SKY/WX    TMP DP  RH WIND       PRES   REMARKS
LAS VEGAS, NV  MOSUNNY   93  10   4 E8        29.97F
ELY, NY        SUNNY     72  19  13 MISG      30.25F
ELKO, NV       SUNNY     77  25  14 VRB3      30.21F
POCATELLO, ID  MOSUNNY   74  37  26 NW9       30.24F
BURLEY, ID     SUNNY     73  35  25 CALM      30.21F
FORT BRIDGER,    N/A     67  28  22 N6        30.35F
EVANSTON, WY   MOSUNNY   64  31  28 CALM      30.32F
ROCK SPRINGS,  PTSUNNY   65  24  21 W8        30.31F
KEMMERER, WY     N/A     63  25  23 SW5       30.35S

$$




USA.gov is the U.S. government's official web portal to all federal, state and local government web resources and services.